Regional Weather Roundup
Issued by NWS Austin/San Antonio, TX

Home | Current Version | Previous Version | Text Only | Print | Product List | Glossary On
Versions: 1 2 3 4 5 6 7 8 9 10 11 12 13 14 15 16 17 18 19 20 21 22 23 24 25 26 27 28 29 30 31 32 33 34 35 36 37 38 39 40 41 42 43 44 45 46 47 48 49 50
042
ASUS44 KEWX 240410
RWREWX
SOUTH TEXAS REGIONAL WEATHER ROUNDUP
NATIONAL WEATHER SERVICE AUSTIN/SAN ANTONIO TX
1100 PM CDT MON OCT 23 2017

NOTE: "FAIR" INDICATED FEW OR NO CLOUDS BELOW 12,000 FEET WITH NO
SIGNIFICANT WEATHER AND/OR OBSTRUCTIONS TO VISIBILITY.

* - THESE STATIONS ARE NOT NWS OR FAA STATIONS...AND ARE NOT SUBJECT
    TO NWS AND FAA QUALITY CONTROL.

TXZ171-172-183>190-240500-
TEXAS HILL COUNTRY AND EDWARDS PLATEAU

CITY           SKY/WX    TMP DP  RH WIND       PRES   REMARKS
JUNCTION       CLEAR     62  51  67 CALM      30.18R
*LLANO         CLEAR     59  54  82 CALM      30.21R
BURNET         CLEAR     62  53  72 CALM      30.19R
*HORSESHOE BAY CLEAR     59  52  77 S3        30.16R
*KERRVILLE     CLEAR     57  53  86 N3        30.17R
*FREDERICKSBRG CLEAR     54  49  82 CALM      30.19R
*ROCKSPRINGS   NOT AVBL
*BOERNE STAGE  CLEAR    N/A N/A N/A CALM      30.18R
*CASTROVILLE   CLEAR     61  49  65 CALM      30.16R
HONDO          CLEAR     58  50  75 N7        30.14R
*UVALDE        CLEAR     63  54  71 E3        30.14R
DEL RIO        CLEAR     68  59  73 E6        30.12R
LAUGHLIN AFB   CLEAR     65  58  76 CALM      30.12R
CARRIZO SPRGS  CLEAR     63  55  77 CALM      30.12R
*EAGLE PASS    NOT AVBL
$$

TXZ173-191>194-202-209-217>225-228-240500-
CENTRAL AND SOUTH CENTRAL TEXAS

CITY           SKY/WX    TMP DP  RH WIND       PRES   REMARKS
GEORGETOWN     CLEAR     61  52  72 CALM      30.17R
AUSTIN/BERGSTM CLEAR     56  55  97 W5        30.14R
AUSTIN/MABRY   CLEAR     62  53  72 CALM      30.16R
*AUSTIN/EXEC   CLEAR     63  54  72 CALM      30.15R
*LAGO VISTA    CLEAR     69  48  47 SE3       30.17R
SAN MARCOS     CLEAR     58  50  75 NW5       30.15R
NEW BRAUNFELS  CLEAR     59  50  72 NW3       30.13R
RANDOLPH AFB   CLEAR     62  51  69 CALM      30.14R
PT SAN ANTONIO CLEAR     62  52  69 CALM      30.12R
SAN ANTONIO    PTCLDY    64  52  64 CALM      30.15R
STINSON FIELD  CLEAR     64  53  67 CALM      30.12R
*LA GRANGE     CLEAR     60  56  88 CALM      30.12R
*GIDDINGS      CLEAR     58  53  85 CALM      30.14R
*GONZALES      CLEAR     62  54  75 CALM      30.13R
$$

TXZ163>164-176>182-195>201-210>213-226-227-235-240500-
SOUTHEAST TEXAS

CITY           SKY/WX    TMP DP  RH WIND       PRES   REMARKS
COLLEGE STN    CLEAR     60  54  80 CALM      30.13R
*BRYAN         CLEAR     57  55  94 CALM      30.15R
*CALDWELL      CLEAR     57  53  88 CALM      30.14R
*CROCKETT        N/A     54  50  87 CALM      30.15R
*BRENHAM       CLEAR     59  57  93 CALM      30.15R
HUNTSVILLE     CLEAR     59  51  75 CALM      30.12R
CONROE         CLEAR     53  53 100 CALM      30.12R
HOUSTON BUSH   CLEAR     58  54  86 CALM      30.12R
HOUSTON HOBBY  PTCLDY    63  52  67 CALM      30.12R
*HOUSTON SW AP CLEAR     55  54  95 CALM      30.13R
PEARLAND       CLEAR     61  53  75 CALM      30.13R
HOUSTON HOOKS  CLEAR     56  55  97 CALM      30.12R
ELLINGTON FLD  CLEAR     63  52  67 CALM      30.13R
SUGAR LAND     CLEAR     56  53  90 W5        30.12R
*HOUSTON EXEC  PTCLDY    59  54  82 CALM      30.14R
*CLEVELAND MUN CLEAR     54  53  95 CALM      30.13R
*WHARTON       PTCLDY    56  53  89 CALM      30.14R
*COLUMBUS      FAIR      56  54  91 CALM      30.15R
*EAGLE LAKE    CLEAR     60  57  89 CALM      30.13R
$$

TXZ214>216-236>238-240500-
THE UPPER TEXAS COAST

CITY           SKY/WX    TMP DP  RH WIND       PRES   REMARKS
*ORANGE        CLEAR     55  55 100 CALM      30.12R
PORT ARTHUR    CLEAR     56  54  93 SW5       30.10R
GALVESTON      CLEAR     66  55  67 CALM      30.12R
ANGLETON       PTCLDY    57  54  89 CALM      30.12R
*BAY CITY      PTCLDY    58  56  95 CALM      30.12R
PALACIOS       NOT AVBL
$$

TXZ229>234-239>247-240500-
TEXAS COASTAL BEND AND RIO GRANDE PLAINS

CITY           SKY/WX    TMP DP  RH WIND       PRES   REMARKS
VICTORIA       PTCLDY    56  52  86 S5        30.13R
*BEEVILLE      PTCLDY    59  48  66 NE5       30.13R
ROCKPORT       CLEAR     72  58  61 E9        30.11R
*PORT ARANSAS  NOT AVBL
*PORT LAVACA   NOT AVBL
*INGLESIDE     NOT AVBL
CORPUS CHRISTI CLEAR     67  55  65 E5        30.11R
CORPUS NAS     CLEAR     72  60  66 E7        30.10R
*ROBSTOWN      CLEAR     65  52  63 E3        30.12R
ALICE          CLEAR     61  51  70 CALM      30.11R
KINGSVILLE NAS CLEAR     64  56  75 SE3       30.10R
COTULLA        CLEAR     69  51  52 E6        30.13R
*FAITH RANCH   CLEAR     68  59  73 NE8       30.12R
LAREDO         CLEAR     73  58  59 SE12      30.10R
$$

TXZ248>255-240500-
DEEP SOUTH TEXAS

CITY           SKY/WX    TMP DP  RH WIND       PRES   REMARKS
BROWNSVILLE    CLEAR     69  66  90 CALM      30.10R
PORT ISABEL    CLEAR     74  64  71 E7        30.09R
*SOUTH PADRE   NOT AVBL
HARLINGEN      PTCLDY    67  64  90 S6        30.08S
*HEBBRONVILLE  CLEAR     65  55  69 CALM      30.12R
MCALLEN        CLEAR     74  64  71 E6        30.11R
*WESLACO       PTCLDY    70  63  78 CALM      30.10S
FALFURRIAS     CLEAR     65  56  73 CALM      30.10R
EDINBURG       CLEAR     69  62  77 S5        30.10S
*ZAPATA        CLEAR     73  58  59 E8        30.09R
$$

TXZ213>215-236>238-242>244-246-247-251-254-255-240500-
CMAN STATIONS

STATION/POSITION TIME  TEMP    WIND        PRES    WAVE
                       AIR SEA DIR/SP/G            HT/PER
                 (UTC) (F)     (DEG/KT/KT) (MB)    (FT/S)
SABINE PASS      0342   66 75  320/  2/  3 1020.8
SEA RIM ST PARK  0400   66     290/  5/  5 1020.0
NORTH JETTY/GLS  0342      76  200/  3/  4 1019.1
EAGLE POINT      0342   64 74  290/  5/  5 1019.7
MORGANS POINT    0348   69 76  240/  4/  5 1019.7
PORT O`CONNOR    0342   73 78  120/  4/  4 1019.6
MALAQUITE BEACH  0348   77 80  100/ 11/ 12 1018.7
BAFFIN BAY       0348   75 78  110/  7/ 10 1019.1
PORT ISABEL      0342   77 81   90/  9/ 12 1018.5
$$




USA.gov is the U.S. government's official web portal to all federal, state and local government web resources and services.